Tracking 20040 objects as of 19-Nov-2019
Live streaming from Space Station
objects crossing your sky now

NOAA 16 DEB

Track NOAA 16 DEB now!
10-day predictions


NORAD ID: 41407
Int'l Code: 2000-055KL
Perigee: 759.2 km
Apogee: 776.5 km
Inclination: 98.9 °
Period: 100.0 minutes
Semi major axis: 7138 km
RCS: Unknown
Launch date: September 21, 2000
Source: United States (US)
Launch site: AIR FORCE WESTERN TEST RANGE (AFWTR)

Note: This is SATELLITE DEBRIS
aabbcc
Your satellite tracking list
Your tracking list is empty




NASA's NSSDC Master Catalog

Two Line Element Set (TLE):
1 41407U 00055KL  19322.34644082  .00008793  00000-0  28394-2 0  9999
2 41407  98.8925  95.1124 0012082 211.1600 148.8872 14.39331784195652
Source of the keplerian elements: AFSPC